[[{"header":{"parameterUnit":"m.s-1","parameterCategory":1,"la1":30.2991,"la2":30.254,"lo1":-89.0895,"lo2":-89.0444,"dy":0.0017,"dx":0.0017,"nx":28,"ny":28,"refTime":"2024-12-18T03:00:00:Z","depth":0,"parameterNumber":2,"parameterNumberName":"U-component_of_WINDS"},"data":[0,0,0,0,0,0,0,0,0,0,0,0,0,0,0,0,0,0,0,0,0,0,0,0,0,0,0,0,0,0,0,0,0,0,0,0,0,0,0,0,0,0,0,0,0,0,0,0,0,0,0,0,0,0,0,0,0,0,0.455,0.4549,0,0.4473,0.4472,0.4471,0.4427,0.4427,0.4427,0.4427,0.4346,0.4344,0.4342,0,0,0,0,0,0,0,0,0,0,0,0,0,0.4658,0.4656,0.455,0.4549,0.4548,0.4473,0.4472,0.4471,0.4427,0.4427,0.4427,0.4427,0.4346,0.4344,0.4341,0,0,0,0,0,0,0,0,0,0,0,0,0,0.4599,0.4655,0.455,0.4517,0.4513,0.4473,0.4472,0.447,0.4427,0.4427,0.4427,0.4426,0.4347,0.4344,0.4341,0.4327,0,0,0.4332,0.433,0,0,0,0,0,0,0,0,0.4602,0.4595,0.4523,0.4519,0.4515,0.4459,0.448,0.4422,0.4427,0.446,0.4427,0.4426,0.4383,0.4377,0.4363,0.4323,0.432,0.4331,0.433,0.4328,0.4328,0,0,0,0,0,0,0,0.4606,0.4598,0.4519,0.4522,0.4517,0.4506,0.4497,0.4469,0.4424,0.4457,0.4454,0.4445,0.4381,0.4366,0.4361,0.4318,0.4332,0.4329,0.4327,0.4326,0.4264,0.4264,0,0,0,0,0,0,0.4616,0.4602,0.4522,0.4517,0.4559,0.4504,0.4494,0.4477,0.4424,0.4416,0.4445,0.4443,0.4372,0.4365,0.4358,0.4339,0.4328,0.4326,0.4324,0.4263,0.4264,0.4264,0,0,0,0,0,0,0.4618,0.4609,0.4525,0.4558,0.4547,0.4502,0.4484,0.4476,0.4461,0.4415,0.4407,0.4439,0.4371,0.4362,0.4335,0.4335,0.4324,0.4321,0.4263,0.4264,0.4264,0.43,0,0,0,0,0,0,0.4622,0.461,0.4605,0.4559,0.4545,0.4504,0.4484,0.4475,0.4456,0.4453,0.4407,0.4399,0.437,0.434,0.4332,0.4331,0.4319,0.4263,0.4263,0.4264,0.4298,0.4301,0.4303,0,0,0,0,0,0.4626,0.4617,0.4605,0.4595,0.4537,0.4504,0.4496,0.4464,0.4456,0.445,0.4421,0.44,0.4337,0.4338,0.4329,0.4326,0.4263,0.4263,0.4264,0.4297,0.43,0.4303,0,0,0,0,0,0,0.4663,0.461,0.4596,0.4572,0.4543,0.4497,0.4488,0.4469,0.444,0.4438,0.4399,0.4389,0.4366,0.4343,0.4345,0.431,0.4298,0.4296,0.4326,0.4329,0.4332,0.4338,0.4317,0,0,0,0,0,0.4669,0.4647,0.4601,0.4585,0.4571,0.4532,0.4516,0.4495,0.4462,0.4449,0.4418,0.4387,0.436,0.4343,0.4316,0.4295,0.4284,0.4289,0.4291,0.4294,0.4293,0.4281,0.4283,0.4265,0.4265,0.4265,0,0,0.468,0.4648,0.4637,0.4592,0.4566,0.4544,0.4522,0.4499,0.4482,0.4446,0.4419,0.4395,0.4358,0.4334,0.4322,0.4314,0.4296,0.4294,0.4297,0.4294,0.4282,0.4284,0.4285,0.4265,0.4265,0.4265,0,0,0.4689,0.4663,0.4647,0.4622,0.4585,0.4559,0.4556,0.4512,0.4495,0.4468,0.4441,0.442,0.4374,0.4349,0.433,0.4332,0.4312,0.4324,0.4337,0.4326,0.4328,0.4329,0.433,0.4331,0.4323,0.4323,0.4323,0,0.4707,0.4673,0.4641,0.462,0.4601,0.4568,0.4552,0.4529,0.4485,0.4473,0.4465,0.4408,0.438,0.4351,0.4352,0.4337,0.4332,0.4329,0.433,0.4331,0.4332,0.4332,0.4333,0.4325,0.4325,0.4325,0.4324,0,0.4698,0.4675,0.4666,0.4626,0.4606,0.4587,0.4552,0.4535,0.4516,0.4491,0.4464,0.443,0.4396,0.4387,0.4367,0.4355,0.4352,0.4338,0.4324,0.4336,0.4336,0.4336,0.4328,0.4327,0.4326,0.4326,0,0,0.4728,0.467,0.4668,0.4649,0.4606,0.4587,0.4568,0.4535,0.4523,0.4493,0.4476,0.4439,0.4426,0.4405,0.4382,0.4372,0.4377,0.4359,0.4358,0.4364,0.4362,0.4374,0.4375,0.4363,0.4363,0.4363,0.4366,0,0.4731,0.4695,0.4665,0.464,0.4618,0.4588,0.4571,0.4542,0.4519,0.4497,0.4471,0.4446,0.443,0.4418,0.4407,0.4378,0.4376,0.4378,0.4347,0.4346,0.4357,0.4374,0.4386,0.439,0.4366,0.4366,0.4365,0,0.473,0.4703,0.4676,0.4636,0.4626,0.4611,0.458,0.4559,0.4527,0.4511,0.4488,0.4465,0.4443,0.4432,0.4401,0.4403,0.4388,0.4373,0.4372,0.4368,0.4357,0.4371,0.4391,0.4392,0.4365,0.4365,0.4365,0,0.4755,0.4712,0.469,0.4675,0.4629,0.4619,0.4599,0.4566,0.4549,0.4522,0.451,0.448,0.4464,0.4441,0.441,0.4405,0.4383,0.4369,0.4369,0.437,0.4366,0.4366,0.4383,0.4356,0.4356,0.4356,0.4356,0,0.4762,0.4747,0.4701,0.4688,0.467,0.4637,0.462,0.4597,0.4569,0.4551,0.4522,0.4505,0.4465,0.4444,0.442,0.4398,0.4391,0.4377,0.4371,0.438,0.4382,0.437,0.4369,0.4356,0.4356,0.4356,0.4356,0,0.4787,0.4756,0.4731,0.4689,0.4678,0.4667,0.4631,0.4617,0.4593,0.457,0.4563,0.4525,0.4498,0.4465,0.4428,0.4412,0.4393,0.4383,0.4405,0.4401,0.4403,0.4404,0.4413,0.4413,0.4386,0.4386,0.4386,0,0.4793,0.4781,0.4739,0.4725,0.4706,0.4684,0.4667,0.4634,0.4617,0.458,0.4571,0.4543,0.4518,0.4478,0.4446,0.4418,0.4407,0.4413,0.4403,0.4413,0.4408,0.4409,0.4408,0.4415,0.4416,0.4416,0.4416,0,0.4809,0.4794,0.4771,0.4743,0.4724,0.47,0.4674,0.4664,0.4626,0.4609,0.4582,0.4563,0.4526,0.4499,0.4467,0.4445,0.4425,0.442,0.4419,0.4428,0.4441,0.4435,0.4412,0.442,0.4419,0.4419,0.4419,0.4419,0.4825,0.4813,0.4782,0.4757,0.4735,0.4712,0.4698,0.4672,0.465,0.4618,0.4599,0.4573,0.4542,0.4497,0.4477,0.4456,0.4449,0.4446,0.4446,0.4446,0.4449,0.4444,0.445,0.445,0.445,0.445,0.445,0,0.4839,0.4818,0.4796,0.4762,0.4743,0.4726,0.4697,0.4683,0.466,0.4633,0.4611,0.4581,0.4554,0.4521,0.4493,0.4483,0.4472,0.4476,0.4477,0.4472,0.4457,0.4462,0.4485,0.4485,0.4485,0.4485,0.4485,0.4485,0.4844,0.4824,0.4806,0.4775,0.4753,0.4729,0.4714,0.4693,0.4672,0.464,0.4618,0.4597,0.4568,0.4537,0.4513,0.4504,0.4495,0.4501,0.449,0.4476,0.4473,0.447,0.4474,0.45,0.45,0.4506,0.4507,0.4507]},{"header":{"parameterUnit":"m.s-1","parameterCategory":1,"la1":30.2991,"la2":30.254,"lo1":-89.0895,"lo2":-89.0444,"dy":0.0017,"dx":0.0017,"nx":28,"ny":28,"refTime":"2024-12-18T03:00:00:Z","depth":0,"parameterNumber":3,"parameterNumberName":"V-component_of_WINDS"},"data":[0,0,0,0,0,0,0,0,0,0,0,0,0,0,0,0,0,0,0,0,0,0,0,0,0,0,0,0,0,0,0,0,0,0,0,0,0,0,0,0,0,0,0,0,0,0,0,0,0,0,0,0,0,0,0,0,0,0,-4.1058,-4.1058,0,-4.1103,-4.1103,-4.1104,-4.1081,-4.108,-4.1078,-4.1077,-4.1118,-4.112,-4.1122,0,0,0,0,0,0,0,0,0,0,0,0,0,-4.0947,-4.0949,-4.1058,-4.1058,-4.1059,-4.1103,-4.1103,-4.1104,-4.1081,-4.1079,-4.1078,-4.1077,-4.1117,-4.1119,-4.1122,0,0,0,0,0,0,0,0,0,0,0,0,0,-4.0993,-4.095,-4.1058,-4.1053,-4.1053,-4.1103,-4.1103,-4.1104,-4.1081,-4.1079,-4.1078,-4.1076,-4.1116,-4.1119,-4.1122,-4.1178,0,0,-4.1132,-4.1134,0,0,0,0,0,0,0,0,-4.0991,-4.0998,-4.1053,-4.1053,-4.1053,-4.1084,-4.1079,-4.1129,-4.1082,-4.107,-4.1077,-4.1075,-4.1108,-4.1111,-4.1124,-4.118,-4.1181,-4.1133,-4.1135,-4.1136,-4.1137,0,0,0,0,0,0,0,-4.0988,-4.0995,-4.1075,-4.1054,-4.1054,-4.1047,-4.1051,-4.1088,-4.1098,-4.1071,-4.107,-4.1076,-4.1107,-4.1121,-4.1124,-4.1182,-4.1133,-4.1135,-4.1137,-4.1139,-4.1285,-4.1287,0,0,0,0,0,0,-4.0985,-4.0993,-4.1074,-4.1077,-4.1017,-4.105,-4.1055,-4.1076,-4.1098,-4.1099,-4.1077,-4.1074,-4.1116,-4.1121,-4.1126,-4.1191,-4.1136,-4.1139,-4.1141,-4.1283,-4.1286,-4.1288,0,0,0,0,0,0,-4.0983,-4.0993,-4.1072,-4.1035,-4.1044,-4.1054,-4.1077,-4.1078,-4.1091,-4.1102,-4.1103,-4.1089,-4.1115,-4.1121,-4.1165,-4.1192,-4.1141,-4.1143,-4.1281,-4.1284,-4.1287,-4.1323,0,0,0,0,0,0,-4.098,-4.0992,-4.1014,-4.1035,-4.1046,-4.1112,-4.1079,-4.108,-4.1097,-4.1094,-4.1114,-4.1115,-4.1114,-4.1161,-4.1169,-4.1196,-4.1146,-4.1279,-4.1282,-4.1286,-4.132,-4.1327,-4.1334,0,0,0,0,0,-4.0976,-4.1021,-4.1016,-4.1025,-4.1074,-4.1114,-4.112,-4.1119,-4.11,-4.1121,-4.1129,-4.1114,-4.1189,-4.1165,-4.1174,-4.1203,-4.1277,-4.1281,-4.1286,-4.1317,-4.1326,-4.1333,0,0,0,0,0,0,-4.1001,-4.1024,-4.1018,-4.1072,-4.1091,-4.111,-4.1137,-4.1129,-4.1153,-4.1149,-4.1145,-4.115,-4.1195,-4.1204,-4.1177,-4.1257,-4.123,-4.1236,-4.125,-4.1259,-4.1266,-4.1262,-4.1149,0,0,0,0,0,-4.1013,-4.1045,-4.1063,-4.1109,-4.1119,-4.1127,-4.1144,-4.1142,-4.1161,-4.1169,-4.1179,-4.1197,-4.1225,-4.1242,-4.1268,-4.1322,-4.1325,-4.1346,-4.1353,-4.1358,-4.1363,-4.1391,-4.14,-4.1302,-4.1302,-4.1302,0,0,-4.1037,-4.1054,-4.1074,-4.1114,-4.1129,-4.1161,-4.1134,-4.1168,-4.1191,-4.1174,-4.1216,-4.1225,-4.1244,-4.1294,-4.1316,-4.1302,-4.1391,-4.1364,-4.1368,-4.137,-4.1397,-4.1406,-4.1414,-4.1305,-4.1305,-4.1304,0,0,-4.1098,-4.1115,-4.1154,-4.1171,-4.1195,-4.12,-4.121,-4.1231,-4.1236,-4.128,-4.1267,-4.1294,-4.1341,-4.1356,-4.1369,-4.1438,-4.1425,-4.1446,-4.1481,-4.1509,-4.1516,-4.1523,-4.1546,-4.1555,-4.1451,-4.1451,-4.1451,0,-4.1124,-4.1174,-4.1175,-4.1212,-4.1229,-4.1218,-4.1257,-4.1272,-4.1303,-4.1314,-4.1299,-4.1359,-4.1371,-4.1423,-4.144,-4.1452,-4.1462,-4.1443,-4.1516,-4.1522,-4.1529,-4.155,-4.1559,-4.1454,-4.1453,-4.1453,-4.1453,0,-4.1204,-4.1239,-4.1268,-4.13,-4.1321,-4.1359,-4.1365,-4.1386,-4.1382,-4.1389,-4.1433,-4.1448,-4.1476,-4.1489,-4.1485,-4.1541,-4.1531,-4.1516,-4.1487,-4.154,-4.1561,-4.1569,-4.1457,-4.1456,-4.1455,-4.1455,0,0,-4.1279,-4.1314,-4.1324,-4.1339,-4.1366,-4.1391,-4.1428,-4.1459,-4.1476,-4.1498,-4.1527,-4.1569,-4.1556,-4.1571,-4.1569,-4.1594,-4.1646,-4.1575,-4.1576,-4.1587,-4.1706,-4.1716,-4.1726,-4.1639,-4.164,-4.1642,-4.1704,0,-4.134,-4.1407,-4.141,-4.147,-4.1501,-4.1492,-4.1524,-4.1543,-4.155,-4.1576,-4.1583,-4.1613,-4.1593,-4.1603,-4.1627,-4.1634,-4.1669,-4.163,-4.1664,-4.1665,-4.1658,-4.1737,-4.1747,-4.1805,-4.1712,-4.1714,-4.1715,0,-4.142,-4.1447,-4.151,-4.1534,-4.1547,-4.1576,-4.1604,-4.163,-4.1651,-4.1655,-4.1673,-4.1668,-4.1704,-4.1677,-4.1726,-4.1699,-4.1714,-4.172,-4.1722,-4.1723,-4.1691,-4.1738,-4.1824,-4.1832,-4.1727,-4.1726,-4.1725,0,-4.1466,-4.1518,-4.1563,-4.1576,-4.1605,-4.1625,-4.1638,-4.1658,-4.1676,-4.17,-4.1712,-4.1739,-4.1754,-4.1775,-4.1777,-4.1757,-4.1826,-4.1798,-4.1828,-4.1828,-4.1841,-4.1839,-4.1928,-4.1853,-4.1853,-4.1853,-4.1853,0,-4.1533,-4.1571,-4.1584,-4.1611,-4.1655,-4.1658,-4.17,-4.1711,-4.1729,-4.1757,-4.175,-4.1776,-4.1779,-4.1805,-4.1807,-4.1847,-4.1853,-4.1856,-4.1855,-4.1855,-4.1855,-4.1863,-4.1858,-4.1855,-4.1855,-4.1855,-4.1854,0,-4.159,-4.1601,-4.1649,-4.1673,-4.168,-4.1711,-4.1731,-4.1756,-4.1764,-4.1799,-4.1808,-4.1819,-4.185,-4.1855,-4.189,-4.1892,-4.1939,-4.1935,-4.1932,-4.1931,-4.1959,-4.1956,-4.2054,-4.2067,-4.1986,-4.1987,-4.1988,0,-4.1631,-4.1661,-4.169,-4.1709,-4.1723,-4.1755,-4.1774,-4.1779,-4.1799,-4.1827,-4.1848,-4.1879,-4.1904,-4.1953,-4.1963,-4.1991,-4.1986,-4.2019,-4.199,-4.1989,-4.1985,-4.1982,-4.1985,-4.2024,-4.2025,-4.2025,-4.2026,0,-4.1702,-4.1706,-4.1735,-4.1767,-4.1791,-4.1815,-4.1838,-4.1854,-4.1862,-4.1885,-4.1918,-4.1937,-4.1975,-4.2005,-4.2033,-4.2043,-4.2035,-4.2036,-4.2043,-4.2042,-4.2039,-4.204,-4.1945,-4.2032,-4.2032,-4.2031,-4.2031,-4.2031,-4.1751,-4.1777,-4.1802,-4.1835,-4.1854,-4.1876,-4.1901,-4.1913,-4.1941,-4.1974,-4.1975,-4.2011,-4.2031,-4.2068,-4.2081,-4.2108,-4.2097,-4.2109,-4.2111,-4.2113,-4.2116,-4.2037,-4.2113,-4.2113,-4.2112,-4.2112,-4.2112,0,-4.182,-4.1836,-4.1867,-4.1901,-4.1926,-4.192,-4.1946,-4.1967,-4.1999,-4.2021,-4.2046,-4.2083,-4.2113,-4.2127,-4.2156,-4.2174,-4.2171,-4.2181,-4.2179,-4.2181,-4.2124,-4.2114,-4.2183,-4.2183,-4.2183,-4.2183,-4.2183,-4.2183,-4.1858,-4.1903,-4.191,-4.1963,-4.1979,-4.2015,-4.203,-4.205,-4.2068,-4.2111,-4.2136,-4.2146,-4.2164,-4.2194,-4.2221,-4.2224,-4.2234,-4.2245,-4.2246,-4.2192,-4.2185,-4.2178,-4.2168,-4.2248,-4.2248,-4.2301,-4.2301,-4.2302]}]]